Location: Le Rocchette
(44.3500°N, 7.8333°E)
Time: 11:20:38
(UTC+00:00)

Cosmos 1408 - Pass Details

Date: 17 November 2019
Orbit: 470 x 497 km, 82.6° (Epoch: 09 December)

Event Time Altitude Azimuth Distance (km) Brightness Sun altitude
Rises 05:06:20 0° 196° (SSW) 2,564 6.2 -14.3°
Reaches altitude 10° 05:08:28 10° 200° (SSW) 1,684 5.2 -14.0°
Maximum altitude 05:12:06 57° 280° (W) 584 2.6 -13.3°
Drops below altitude 10° 05:15:45 10° 0° (N) 1,686 5.2 -12.7°
Sets 05:17:53 0° 5° (N) 2,567 6.1 -12.3°
